loading
|

ONEWEB-0067, 45425

Orbit data source: Space-Track

ONEWEB-0067, 45425 is a payload satellite owned by One Web (UK) in LEO that was launched on Sat, 21 Mar 2020 UTC via a SOYUZ-2-1B launch vehicle from the Tyuratam Missile And Space Complex (TTMTR). Payloads include a variety of satellites, spacecraft, and rockets equipped with specific instruments for various scientific and technological missions. These include communications satellites like Starlink; space stations such as the ISS; scientific satellites like the Hubble; Earth observation satellites from companies like Planet Labs, Umbra, and HawkEye 360; GPS; miniature CubeSats for education and research; and military/defense satellites.

Loading next visibility...
Loading greatness...
ONEWEB-0067 details
Identifier
45425, 2020-020B
Orbit
LEO
Last TLE update9 hours ago
Origin
Flag of UKOne Web (UK)
ManufacturerOne Web
MissionOperational Commercial Communications
Bus & MotorARROW, Unknown motor
Mass148 kg wet, ~140 kg dry
Launch date (UTC)
2020-03-21 (5 years ago)
Launch vehicle
SOYUZ-2-1B
Launch site
Tyuratam Missile And Space Complex (TTMTR)
Object type
Payload
Rocket body
Debris
Shape & HBRTrap Box + 2 Pan, 5 m
Radar Cross Section2.957 m², Large (>1 m²)

Expand to show TLE details & history

TLE from 9 hours ago
0 ONEWEB-0067
1 45425U 20020B   24279.57806905 -.00000447  00000-0 -12978-2 0  9994
2 45425  87.8923 144.4330 0001459  85.3355 274.7939 13.11414738221522
Epoch: 2024-10-05T13:52Z
Definitive object data (Epoch: 2024-10-05T13:52:25.165Z)
Latitude-0.0001°
Longitude-78.40423°
Altitude1,220.488 km
Speed7.244 km/s
True Right ascension09h 37m 43s
True Declination0° 00' 00"
Sunlit
Object was in daylight at TLE epoch
Predictive object data (real-time)
Latitude-84.51044°
Longitude123.92073°
Altitude1,247.46 km
Speed7.23 km/s
Apparent Right ascension03h 59m 42s
Apparent Declination-66° 30' 15"
Sunlit
Object is in daylight
Predictive observer data (real-time)
Local Sidereal Time16:32:34
Azimuth172.786° S
Elevation-63.013°
Doppler factor1
Orbital elements
Apogee1,215.917 km
Perigee1,213.702 km
Semi-major axis7,592.946 km
Eccentricity0.0001459
Inclination87.8923°
RAAN144.433°
Arg. of periapsis85.3355°
True anomaly274.77724°
Mean anomaly274.7939°
Eccentric anomaly274.78557°
Mean motion3.28041 °/min
BSTAR-0.0012978
Period109.74 mins
No data available

ONEWEB-0067 Visibility forecast

Observer location: 39.9160978°, -105.1181434

ONEWEB-0067 is not visible in the next 10 days
Span
Click to sort rows by Start time (UTC) header in descending order
Start Az.
Max El. time (UTC)
Max El. Az.
Max El.
End time (UTC)
End Az.